This is the latest recevied weather packets stored in our database for station/object KC1TWD. If no packets are shown the sender has not sent any weather packets the latest 1 day(s).
| Time | Temp. | Humidity | Pressure | Rain* | Wind** | Luminosity | Snow |
|---|---|---|---|---|---|---|---|
| 1778022293 | 22.78° C | 53% | 1006 hPa | 0 mm | 0.89 m/s, 247° | - | - |
| 1778021989 | 22.78° C | 52% | 1005.8 hPa | 0 mm | 0.89 m/s, 345° | - | - |
| 1778021686 | 22.78° C | 51% | 1005.3 hPa | 0 mm | 0.45 m/s, 302° | - | - |
| 1778021382 | 22.78° C | 52% | 1005 hPa | 0 mm | 0 m/s | - | - |
| 1778021079 | 23.33° C | 50% | 1005.1 hPa | 0 mm | 0.45 m/s, 322° | - | - |
| 1778020776 | 23.33° C | 49% | 1005 hPa | 0 mm | 0 m/s | - | - |
| 1778020473 | 23.33° C | 49% | 1004.8 hPa | 0 mm | 0 m/s | - | - |
| 1778020169 | 23.89° C | 47% | 1004.9 hPa | 0 mm | 0.45 m/s, 118° | - | - |
| 1778019865 | 25° C | 44% | 1004.7 hPa | 0 mm | 0.45 m/s, 338° | - | - |
| 1778019562 | 25.56° C | 41% | 1004.6 hPa | 0 mm | 0 m/s | - | - |
| 1778019259 | 25.56° C | 42% | 1004.7 hPa | 0 mm | 0.45 m/s, 272° | - | - |
| 1778018956 | 26.11° C | 41% | 1004.5 hPa | 0 mm | 0 m/s | - | - |
| 1778018653 | 26.11° C | 40% | 1004.4 hPa | 0 mm | 0 m/s | - | - |
| 1778018351 | 26.11° C | 39% | 1004.3 hPa | 0 mm | 1.79 m/s, 175° | - | - |
| 1778018049 | 26.11° C | 39% | 1004.2 hPa | 0 mm | 0.89 m/s, 298° | - | - |
| 1778017746 | 26.67° C | 39% | 1003.9 hPa | 0 mm | 0.89 m/s, 214° | - | - |
| 1778017444 | 26.67° C | 38% | 1004.2 hPa | 0 mm | 0.89 m/s, 122° | - | - |
| 1778017141 | 27.22° C | 38% | 1003.9 hPa | 0 mm | 0.89 m/s, 189° | - | - |
| 1778016839 | 27.22° C | 38% | 1003.8 hPa | 0 mm | 0.45 m/s, 148° | - | - |
| 1778016534 | 27.22° C | 37% | 1003.6 hPa | 0 mm | 1.79 m/s, 287° | - | - |
| 1778016232 | 27.22° C | 38% | 1003.5 hPa | 0 mm | 0 m/s | - | - |
| 1778015928 | 27.78° C | 36% | 1003.3 hPa | 0 mm | 1.79 m/s, 158° | - | - |
| 1778015625 | 27.78° C | 37% | 1003.3 hPa | 0 mm | 0.45 m/s, 227° | - | - |
| 1778015322 | 27.78° C | 36% | 1003.3 hPa | 0 mm | 0 m/s | - | - |
| 1778015019 | 28.33° C | 35% | 1003.5 hPa | 0 mm | 0.45 m/s, 178° | - | - |
* Rain latest hour (hover to see other rain measurements)
** Current wind speed in m/s (hover to see current wind gust speed)